Effingham, IL

8:05 AM CST on December 08, 2019 (GMT -0600)
Effingham

Weather History for K1H2 - November, 2019

Change the Weather History Date:

Friday, November 15, 2019

  Actual Average (WUND) Record (WUND)
Temperature  
Mean Temperature 32 °F -  
Max Temperature 43 °F - - (-1)
Min Temperature 20 °F - - (-1)
Degree Days  
Heating Degree Days 34    
Moisture  
Dew Point 17 °F    
Average Humidity 59    
Maximum Humidity 79    
Minimum Humidity 27    
Precipitation  
Precipitation 0.00 in - - ()
Sea Level Pressure  
Sea Level Pressure 30.40 in    
Wind  
Wind Speed 1 mph ()    
Max Wind Speed 7 mph    
Max Gust Speed -    
Visibility 7.8 miles    
Events      
Averages and records for this station are not official NWS values.
T = Trace of Precipitation, MM = Missing Value Source: Averaged Metar Reports

Daily Weather History Graph

Daily Weather History Graph

Search for Another Location

Airport or City:

Astronomy

Nov. 15, 2019 Rise Set
Actual Time 6:36 AM CST 4:40 PM CST
Civil Twilight 6:08 AM CST 5:08 PM CST
Nautical Twilight 5:36 AM CST 5:40 PM CST
Astronomical Twilight 5:04 AM CST 6:12 PM CST
Moon 7:16 PM CST (11/15) 9:32 AM CST (11/15)
Length of Visible Light 11h 00m
Length of Day
10h 03m
Waning Gibbous, 90% of the Moon is Illuminated
Nov 15
Waning Gibbous
Nov 19
Last Quarter
Nov 26
New
Dec 4
First Quarter
Dec 11
Full

Hourly Weather History & Observations

Time (CST) Temp. Windchill Dew Point Humidity Pressure Visibility Wind Dir Wind Speed Gust Speed Precip Events Conditions
12:15 AM 23.2 °F - 17.6 °F 79% 30.39 in 2.5 mi Calm Calm - N/A   Haze
12:35 AM 23.2 °F - 17.6 °F 79% 30.40 in 2.5 mi Calm Calm - N/A   Haze
1:15 AM 22.8 °F - 17.1 °F 79% 30.39 in 3.0 mi Calm Calm - N/A   Haze
1:35 AM 22.3 °F - 16.5 °F 79% 30.40 in 2.5 mi Calm Calm - N/A   Haze
1:55 AM 22.8 °F - 17.2 °F 79% 30.40 in 3.0 mi Calm Calm - N/A   Haze
2:35 AM 22.5 °F - 16.5 °F 78% 30.40 in 3.0 mi Calm Calm - N/A   Haze
2:55 AM 21.0 °F - 14.9 °F 77% 30.39 in 3.0 mi Calm Calm - N/A   Haze
3:15 AM 21.7 °F - 15.8 °F 78% 30.39 in 3.0 mi Calm Calm - N/A   Haze
3:35 AM 21.4 °F - 15.6 °F 78% 30.40 in 3.0 mi Calm Calm - N/A   Haze
3:55 AM 21.0 °F - 14.9 °F 77% 30.41 in 3.0 mi Calm Calm - N/A   Haze
4:15 AM 20.1 °F - 14.0 °F 77% 30.41 in 4.0 mi Calm Calm - N/A   Haze
4:35 AM 21.2 °F - 15.1 °F 77% 30.41 in 4.0 mi Calm Calm - N/A   Haze
4:55 AM 20.3 °F - 14.2 °F 77% 30.41 in 4.0 mi Calm Calm - N/A   Haze
5:15 AM 21.2 °F - 15.3 °F 78% 30.42 in 4.0 mi Calm Calm - N/A   Haze
5:35 AM 21.0 °F - 14.9 °F 77% 30.42 in 4.0 mi Calm Calm - N/A   Haze
5:55 AM 20.7 °F - 14.7 °F 78% 30.42 in 3.0 mi Calm Calm - N/A   Haze
6:35 AM 20.7 °F - 14.4 °F 77% 30.42 in 5.0 mi Calm Calm - N/A   Haze
6:55 AM 21.2 °F - 14.9 °F 77% 30.43 in 5.0 mi Calm Calm - N/A   Haze
7:35 AM 24.3 °F 19.9 °F 18.1 °F 77% 30.43 in 5.0 mi WNW 3.5 mph - N/A   Haze
7:55 AM 25.5 °F 21.3 °F 18.7 °F 75% 30.43 in 7.0 mi WNW 3.5 mph - N/A   Clear
8:15 AM 26.6 °F 22.6 °F 18.3 °F 71% 30.44 in 7.0 mi West 3.5 mph - N/A   Clear
8:35 AM 28.0 °F 22.8 °F 18.7 °F 68% 30.44 in 7.0 mi WNW 4.6 mph - N/A   Clear
8:55 AM 29.3 °F 24.3 °F 18.5 °F 64% 30.43 in 10.0 mi WNW 4.6 mph - N/A   Clear
9:15 AM 30.7 °F 24.9 °F 17.2 °F 57% 30.43 in 10.0 mi NW 5.8 mph - N/A   Clear
9:35 AM 31.8 °F 26.2 °F 16.3 °F 53% 30.43 in 10.0 mi WNW 5.8 mph - N/A   Clear
9:55 AM 32.5 °F 29.3 °F 15.3 °F 49% 30.43 in 10.0 mi WNW 3.5 mph - N/A   Clear
10:15 AM 34.2 °F 29.0 °F 16.9 °F 49% 30.43 in 10.0 mi WNW 5.8 mph - N/A   Clear
10:35 AM 34.7 °F 30.6 °F 15.6 °F 46% 30.43 in 10.0 mi West 4.6 mph - N/A   Clear
10:55 AM 35.6 °F - 14.9 °F 43% 30.43 in 10.0 mi Calm Calm - N/A   Clear
11:15 AM 36.7 °F 34.1 °F 15.6 °F 42% 30.42 in 10.0 mi West 3.5 mph - N/A   Clear
11:35 AM 37.9 °F 35.5 °F 15.6 °F 40% 30.41 in 10.0 mi WNW 3.5 mph - N/A   Clear
11:55 AM 38.7 °F 35.2 °F 15.3 °F 39% 30.41 in 10.0 mi WNW 4.6 mph - N/A   Clear
12:15 PM 39.6 °F - 15.3 °F 37% 30.40 in 10.0 mi Calm Calm - N/A   Clear
12:35 PM 39.9 °F 35.1 °F 15.1 °F 36% 30.39 in 10.0 mi West 6.9 mph - N/A   Clear
12:55 PM 40.8 °F - 14.7 °F 35% 30.39 in 10.0 mi Calm Calm - N/A   Clear
1:15 PM 41.2 °F 36.6 °F 15.4 °F 35% 30.39 in 10.0 mi WNW 6.9 mph - N/A   Clear
1:35 PM 41.9 °F 39.0 °F 15.8 °F 35% 30.38 in 10.0 mi West 4.6 mph - N/A   Clear
1:55 PM 42.4 °F 39.6 °F 14.4 °F 32% 30.37 in 10.0 mi West 4.6 mph - N/A   Clear
2:15 PM 43.5 °F 40.1 °F 14.7 °F 31% 30.38 in 10.0 mi WNW 5.8 mph - N/A   Clear
2:35 PM 43.7 °F 40.3 °F 12.7 °F 29% 30.37 in 10.0 mi West 5.8 mph - N/A   Clear
2:55 PM 43.9 °F 40.5 °F 12.2 °F 28% 30.37 in 10.0 mi WNW 5.8 mph - N/A   Clear
3:15 PM 43.9 °F 42.3 °F 11.7 °F 27% 30.37 in 10.0 mi NW 3.5 mph - N/A   Clear
3:35 PM 43.9 °F 42.3 °F 12.7 °F 28% 30.37 in 10.0 mi WNW 3.5 mph - N/A   Clear
3:55 PM 43.3 °F 40.7 °F 13.8 °F 30% 30.38 in 10.0 mi NW 4.6 mph - N/A   Clear
4:15 PM 41.9 °F - 15.4 °F 34% 30.37 in 10.0 mi Calm Calm - N/A   Clear
4:35 PM 41.4 °F - 13.6 °F 32% 30.37 in 10.0 mi Calm Calm - N/A   Clear
4:55 PM 38.1 °F - 15.4 °F 40% 30.36 in 10.0 mi Calm Calm - N/A   Clear
5:15 PM 35.1 °F - 16.9 °F 48% 30.36 in 10.0 mi Calm Calm - N/A   Clear
5:35 PM 33.8 °F - 17.4 °F 51% 30.36 in 10.0 mi Calm Calm - N/A   Clear
5:55 PM 32.7 °F - 17.4 °F 53% 30.37 in 10.0 mi Calm Calm - N/A   Clear
6:15 PM 32.0 °F - 17.8 °F 56% 30.38 in 10.0 mi Calm Calm - N/A   Clear
6:35 PM 32.0 °F - 18.0 °F 56% 30.39 in 10.0 mi Calm Calm - N/A   Clear
6:55 PM 30.2 °F - 19.8 °F 65% 30.38 in 10.0 mi Calm Calm - N/A   Clear
7:15 PM 31.3 °F - 18.9 °F 60% 30.39 in 10.0 mi Calm Calm - N/A   Clear
7:35 PM 29.8 °F - 19.9 °F 67% 30.39 in 10.0 mi Calm Calm - N/A   Clear
7:55 PM 30.0 °F - 19.4 °F 65% 30.39 in 10.0 mi Calm Calm - N/A   Clear
8:15 PM 30.0 °F - 18.9 °F 63% 30.38 in 10.0 mi Calm Calm - N/A   Clear
8:35 PM 29.1 °F - 19.4 °F 67% 30.38 in 10.0 mi Calm Calm - N/A   Clear
8:55 PM 29.7 °F - 19.0 °F 65% 30.39 in 10.0 mi Calm Calm - N/A   Clear
9:15 PM 29.1 °F - 19.4 °F 67% 30.39 in 10.0 mi Calm Calm - N/A   Clear
9:35 PM 28.9 °F - 19.6 °F 68% 30.39 in 10.0 mi Calm Calm - N/A   Clear
9:55 PM 28.9 °F - 20.3 °F 70% 30.39 in 10.0 mi Calm Calm - N/A   Clear
10:15 PM 28.9 °F - 21.7 °F 74% 30.39 in 10.0 mi Calm Calm - N/A   Clear
10:35 PM 28.4 °F - 21.2 °F 74% 30.39 in 7.0 mi Calm Calm - N/A   Clear
10:55 PM 28.2 °F - 21.9 °F 77% 30.39 in 7.0 mi Calm Calm - N/A   Clear
11:15 PM 27.7 °F - 21.4 °F 77% 30.39 in 7.0 mi Calm Calm - N/A   Clear
11:35 PM 27.7 °F - 21.2 °F 77% 30.38 in 7.0 mi Calm Calm - N/A   Clear
11:55 PM 28.0 °F - 21.6 °F 77% 30.39 in 7.0 mi Calm Calm - N/A   Clear